Weather Roundup
Issued by NWS Springfield, MO

Home | Current Version | Previous Version | Text Only | Print | Product List | Glossary On
Versions: 1 2 3 4 5 6 7 8 9 10 11 12 13 14 15 16 17 18 19 20 21 22 23 24 25 26 27 28 29 30 31 32 33 34 35 36 37 38 39 40 41 42 43 44 45 46 47 48 49 50
000
NZUS99 KSGF 191707
HRRSGF

HOURLY WEATHER
NATIONAL WEATHER SERVICE SPRINGFIELD MO
1100 AM CST MON FEB 19 2018

......SGF CWA......

CITY           SKY/WX    TMP DP  RH WIND       PRES   REMARKS
SPRINGFIELD    CLOUDY    60  58  92 S13       29.83F THUNDER
JOPLIN         LGT RAIN  63  62  97 S22G36    29.79S
WEST PLAINS    LGT RAIN  61  57  87 S12G25    29.95S
ROLLA          RAIN      59  57  93 S18G28    29.87R
OSAGE BEACH    LGT RAIN  59  57  93 S12       29.85R
BRANSON        LGT RAIN  64  57  77 S18G30    29.91R

......SURROUNDING SGF CWA......

CITY           SKY/WX    TMP DP  RH WIND       PRES   REMARKS
CHANUTE        LGT RAIN  65  62  90 S20G30    29.73S
PARSONS        RAIN      63  62  97 S16G26    29.75R FOG
COFFEYVILLE    LGT RAIN  62  60  93 SW9       29.76R FOG
EMPORIA        CLOUDY    34  30  85 NW15      29.78R WCI  24
GROVE OK       CLOUDY    64  63  94 S16G25    29.82S
ROGERS AR      CLOUDY    62  60  93 S20G32    29.88S
SILOAM SPRINGS CLOUDY    62  59  90 S15G23    29.86F
HARRISON AR    CLOUDY    63  58  83 S16G29    29.92R
NEAR YELLVILLE CLOUDY    65  57  75 S10G16    29.94F

......KANSAS AND MISSOURI......

CITY           SKY/WX    TMP DP  RH WIND       PRES   REMARKS
KANSAS CTY INT CLOUDY    36  34  92 NW13      29.75R WCI  27
DOWNTOWN KC    CLOUDY    46  39  76 NW17      29.74R
COLUMBIA       CLOUDY    65  56  72 S18G32    29.79F
SEDALIA        CLOUDY    66  59  78 S18G28    29.77S
ST JOSEPH      CLOUDY    33  33 100 NW13      29.77R FOG     WCI  24
ST LOUIS       LGT RAIN  60  57  89 S21G32    29.89R
SPIRIT OF STL  LGT RAIN  61  58  90 S15G29    29.87S
KIRKSVILLE     PTSUNNY   63  60  90 S17G29    29.71R
WICHITA        FRZ RAIN  31  28  89 N16       29.82R WCI  20
TOPEKA         CLOUDY    35  32  88 W9        29.79R WCI  28
OLATHE         CLOUDY    50  45  83 NW14G21   29.73R

......TENNESSEE......

CITY           SKY/WX    TMP DP  RH WIND       PRES   REMARKS
MEMPHIS        CLOUDY    70  61  73 S17       30.10S
NASHVILLE      PTSUNNY   72  59  63 S18G30    30.17F

......ARKANSAS.......

CITY           SKY/WX    TMP DP  RH WIND       PRES   REMARKS
FAYETTEVILLE   LGT RAIN  62  61  96 S16G23    29.89S FOG
FT SMITH       CLOUDY    70  60  70 S12       29.90S
LITTLE ROCK    CLOUDY    68  62  81 SW10      30.05R

......OKLAHOMA.......

CITY           SKY/WX    TMP DP  RH WIND       PRES   REMARKS
TULSA          PTSUNNY   69  64  84 S28G35    29.74F
PONCA CITY     CLOUDY    45  42  89 N9        29.77R
MCALESTER      CLOUDY    65  63  93 S8        29.86S
OKLAHOMA CITY  CLOUDY    68  60  75 S22       29.75S

......IOWA............

CITY           SKY/WX    TMP DP  RH WIND       PRES   REMARKS
DES MOINES     LGT RAIN  36  34  92 NW9       29.68R VSB 1   WCI  29
QUAD CITIES    LGT RAIN  51  50  96 S8        29.70F

......ILLINOIS........

CITY           SKY/WX    TMP DP  RH WIND       PRES   REMARKS
QUINCY         CLOUDY    61  56  83 S18G25    29.77S
CHICAGO        CLOUDY    44  42  93 SE7       29.81F FOG




USA.gov is the U.S. government's official web portal to all federal, state and local government web resources and services.